When you browse on this site, cookies collect data to enhance your experience and personalize the content and advertising you see.
Visit our Privacy Policy to learn more. By continuing to use the site, you agree to this use of cookies and data.
  • In Hungary
  • List of Countries
  • For 7 days
  • Water Temperature
  • Satellite Maps
  • Weather Map
  • News
  • Weather Widgets
  • user-avatar
    Login

    Hourly Weather Kashipur

    Today, 23 April, Tuesday

    Time Temperature Precipitation Wind Pressure Humidity
    00:00 +29°C° 0 mm 2 mps 736 mmHg 30%
    01:00 +29°C° 0 mm 2 mps 736 mmHg 31%
    02:00 +28°C° 0 mm 2 mps 736 mmHg 32%
    03:00 +28°C° 0 mm 2 mps 736 mmHg 33%
    04:00 +28°C° 0 mm 2 mps 736 mmHg 33%
    05:00 +27°C° 0 mm 2 mps 736 mmHg 34%
    06:00 +30°C° 0 mm 3 mps 737 mmHg 31%
    07:00 +33°C° 0 mm 3 mps 737 mmHg 27%
    08:00 +35°C° 0 mm 4 mps 738 mmHg 24%
    09:00 +37°C° 0 mm 4 mps 737 mmHg 22%
    10:00 +38°C° 0 mm 4 mps 737 mmHg 21%
    11:00 +41°C° 0 mm 4 mps 737 mmHg 19%
    12:00 +40°C° 0 mm 3 mps 737 mmHg 18%
    13:00 +41°C° 0 mm 2 mps 736 mmHg 17%
    14:00 +42°C° 0 mm 1 mps 736 mmHg 16%
    15:00 +41°C° 0 mm 2 mps 736 mmHg 16%
    16:00 +41°C° 0 mm 2 mps 735 mmHg 16%
    17:00 +41°C° 0 mm 2 mps 735 mmHg 16%
    18:00 +38°C° 0 mm 2 mps 736 mmHg 19%
    19:00 +36°C° 0 mm 3 mps 736 mmHg 22%
    20:00 +34°C° 0 mm 3 mps 737 mmHg 25%
    21:00 +33°C° 0 mm 3 mps 737 mmHg 26%
    22:00 +32°C° 0 mm 2 mps 737 mmHg 27%
    23:00 +31°C° 0 mm 2 mps 737 mmHg 28%

    Tomorrow, 24 April, Wednesday

    Time Temperature Precipitation Wind Pressure Humidity
    00:00 +31°C° 0 mm 2 mps 737 mmHg 29%
    01:00 +30°C° 0 mm 2 mps 737 mmHg 30%
    02:00 +30°C° 0 mm 2 mps 737 mmHg 31%
    03:00 +29°C° 0 mm 2 mps 737 mmHg 31%
    04:00 +29°C° 0 mm 2 mps 737 mmHg 32%
    05:00 +29°C° 0 mm 2 mps 737 mmHg 32%
    06:00 +31°C° 0 mm 3 mps 738 mmHg 30%
    07:00 +34°C° 0 mm 4 mps 738 mmHg 28%
    08:00 +37°C° 0 mm 5 mps 739 mmHg 26%
    09:00 +39°C° 0 mm 5 mps 739 mmHg 24%
    10:00 +41°C° 0 mm 5 mps 739 mmHg 22%
    11:00 +42°C° 0 mm 4 mps 738 mmHg 20%
    12:00 +43°C° 0 mm 3 mps 738 mmHg 19%
    13:00 +43°C° 0 mm 2 mps 737 mmHg 18%
    14:00 +43°C° 0 mm 1 mps 737 mmHg 16%
    15:00 +43°C° 0 mm 1 mps 736 mmHg 16%
    16:00 +43°C° 0 mm 1 mps 736 mmHg 16%
    17:00 +42°C° 0 mm 1 mps 735 mmHg 16%
    18:00 +40°C° 0 mm 2 mps 736 mmHg 19%
    19:00 +38°C° 0 mm 2 mps 736 mmHg 22%
    20:00 +36°C° 0 mm 3 mps 737 mmHg 25%
    21:00 +35°C° 0 mm 3 mps 737 mmHg 26%
    22:00 +34°C° 0 mm 2 mps 737 mmHg 28%
    23:00 +32°C° 0 mm 2 mps 737 mmHg 29%

    Day after tomorrow, 25 April, Thursday

    Time Temperature Precipitation Wind Pressure Humidity
    00:00 +32°C° 0 mm 2 mps 737 mmHg 30%
    01:00 +31°C° 0 mm 2 mps 737 mmHg 31%
    02:00 +31°C° 0 mm 2 mps 736 mmHg 33%
    03:00 +30°C° 0 mm 2 mps 736 mmHg 32%
    04:00 +30°C° 0 mm 2 mps 736 mmHg 32%
    05:00 +30°C° 0 mm 3 mps 737 mmHg 32%
    06:00 +33°C° 0 mm 3 mps 737 mmHg 30%
    07:00 +35°C° 0 mm 3 mps 738 mmHg 28%
    08:00 +38°C° 0 mm 3 mps 738 mmHg 26%
    09:00 +39°C° 0 mm 3 mps 738 mmHg 24%
    10:00 +42°C° 0 mm 3 mps 738 mmHg 22%
    11:00 +43°C° 0 mm 3 mps 738 mmHg 20%
    12:00 +44°C° 0 mm 3 mps 738 mmHg 18%
    13:00 +45°C° 0 mm 2 mps 737 mmHg 16%
    14:00 +45°C° 0 mm 1 mps 736 mmHg 14%
    15:00 +46°C° 0 mm 2 mps 736 mmHg 14%
    16:00 +45°C° 0 mm 2 mps 735 mmHg 13%
    17:00 +45°C° 0 mm 3 mps 735 mmHg 13%
    18:00 +43°C° 0 mm 3 mps 735 mmHg 14%
    19:00 +39°C° 0 mm 2 mps 736 mmHg 16%
    20:00 +37°C° 0 mm 2 mps 736 mmHg 18%
    21:00 +36°C° 0 mm 2 mps 736 mmHg 18%
    22:00 +36°C° 0 mm 2 mps 736 mmHg 19%
    23:00 +34°C° 0 mm 1 mps 737 mmHg 20%

    26 April, Friday

    Time Temperature Precipitation Wind Pressure Humidity
    00:00 +34°C° 0 mm 2 mps 736 mmHg 21%
    01:00 +32°C° 0 mm 2 mps 736 mmHg 22%
    02:00 +32°C° 0 mm 2 mps 735 mmHg 22%
    03:00 +31°C° 0 mm 2 mps 735 mmHg 23%
    04:00 +31°C° 0 mm 2 mps 735 mmHg 23%
    05:00 +30°C° 0 mm 2 mps 735 mmHg 23%
    06:00 +34°C° 0 mm 2 mps 736 mmHg 21%
    07:00 +35°C° 0 mm 1 mps 736 mmHg 19%
    08:00 +37°C° 0 mm 1 mps 737 mmHg 16%
    09:00 +40°C° 0 mm 1 mps 737 mmHg 15%
    10:00 +42°C° 0 mm 1 mps 737 mmHg 14%
    11:00 +44°C° 0 mm 1 mps 736 mmHg 13%
    12:00 +45°C° 0 mm 2 mps 736 mmHg 12%
    13:00 +46°C° 0 mm 2 mps 735 mmHg 11%
    14:00 +46°C° 0 mm 3 mps 734 mmHg 10%
    15:00 +46°C° 0 mm 3 mps 734 mmHg 9%
    16:00 +46°C° 0 mm 3 mps 734 mmHg 9%
    17:00 +45°C° 0 mm 3 mps 734 mmHg 8%
    18:00 +43°C° 0 mm 3 mps 734 mmHg 10%
    19:00 +39°C° 0 mm 3 mps 735 mmHg 11%
    20:00 +37°C° 0 mm 2 mps 735 mmHg 12%
    21:00 +36°C° 0 mm 2 mps 736 mmHg 13%
    22:00 +35°C° 0 mm 2 mps 736 mmHg 14%
    23:00 +34°C° 0 mm 2 mps 736 mmHg 15%

    27 April, Saturday

    Time Temperature Precipitation Wind Pressure Humidity
    00:00 +34°C° 0 mm 2 mps 735 mmHg 16%
    01:00 +32°C° 0 mm 2 mps 735 mmHg 16%
    02:00 +31°C° 0 mm 2 mps 735 mmHg 17%
    03:00 +31°C° 0 mm 2 mps 735 mmHg 17%
    04:00 +30°C° 0 mm 2 mps 735 mmHg 17%
    05:00 +30°C° 0 mm 2 mps 735 mmHg 17%
    06:00 +32°C° 0 mm 2 mps 735 mmHg 15%
    07:00 +36°C° 0 mm 2 mps 736 mmHg 13%
    08:00 +37°C° 0 mm 1 mps 736 mmHg 11%
    09:00 +40°C° 0 mm 2 mps 736 mmHg 9%
    10:00 +43°C° 0 mm 2 mps 736 mmHg 8%
    11:00 +46°C° 0 mm 2 mps 736 mmHg 6%
    12:00 +46°C° 0 mm 3 mps 735 mmHg 6%
    13:00 +48°C° 0 mm 4 mps 734 mmHg 5%
    14:00 +49°C° 0 mm 5 mps 734 mmHg 4%
    15:00 +48°C° 0 mm 5 mps 733 mmHg 5%
    16:00 +47°C° 0 mm 5 mps 733 mmHg 6%
    17:00 +47°C° 0 mm 5 mps 733 mmHg 6%
    18:00 +43°C° 0 mm 4 mps 734 mmHg 8%
    19:00 +40°C° 0 mm 3 mps 734 mmHg 9%
    20:00 +37°C° 0 mm 3 mps 735 mmHg 11%
    21:00 +37°C° 0 mm 3 mps 735 mmHg 11%
    22:00 +36°C° 0 mm 3 mps 735 mmHg 12%
    23:00 +35°C° 0 mm 3 mps 735 mmHg 13%

    28 April, Sunday

    Time Temperature Precipitation Wind Pressure Humidity
    00:00 +35°C° 0 mm 3 mps 735 mmHg 12%
    01:00 +34°C° 0 mm 2 mps 734 mmHg 12%
    02:00 +32°C° 0 mm 2 mps 734 mmHg 12%
    03:00 +32°C° 0 mm 2 mps 734 mmHg 11%
    04:00 +31°C° 0 mm 2 mps 734 mmHg 10%
    05:00 +31°C° 0 mm 2 mps 734 mmHg 9%
    06:00 +34°C° 0 mm 2 mps 734 mmHg 9%
    07:00 +37°C° 0 mm 2 mps 735 mmHg 8%
    08:00 +39°C° 0 mm 2 mps 735 mmHg 7%
    09:00 +42°C° 0 mm 3 mps 735 mmHg 7%
    10:00 +45°C° 0 mm 4 mps 735 mmHg 7%
    11:00 +48°C° 0 mm 5 mps 735 mmHg 6%
    12:00 +48°C° 0 mm 5 mps 734 mmHg 6%
    13:00 +49°C° 0 mm 5 mps 733 mmHg 6%
    14:00 +49°C° 0 mm 6 mps 732 mmHg 6%
    15:00 +48°C° 0 mm 5 mps 732 mmHg 6%
    16:00 +48°C° 0 mm 5 mps 732 mmHg 7%
    17:00 +47°C° 0 mm 5 mps 732 mmHg 7%
    18:00 +43°C° 0 mm 4 mps 732 mmHg 8%
    19:00 +41°C° 0 mm 4 mps 733 mmHg 9%
    20:00 +37°C° 0 mm 3 mps 733 mmHg 10%
    21:00 +37°C° 0 mm 3 mps 734 mmHg 11%
    22:00 +36°C° 0 mm 3 mps 734 mmHg 11%
    23:00 +36°C° 0 mm 3 mps 734 mmHg 12%
    Show more